x

North Equatorial Two - 890 Nm East Of Martinique (41041) Weather Station

6:20pm - Mon 29th May 2017 All times are UTC.

  • Wind
    20mph, 25mph gusts
  • Sea Temp 80°f
  • Air Temp 80°f
  • Sea Pressure 1017.4mb

More Historic Weather Station data

Upgrade to MSW Pro to gain access to the past 30 days of data for over 8000 Wavebouys and Weather Stations around the globe.

Join Pro

Comparision Forecast

View Surf forecast
   
Mon 05/29 6:20pm  -   -   -  20 25 mph 1017.4mb 80f 80f
6:10pm  -   -   -  20 25 mph 1017.5mb 80f 80f
6:00pm  -   -   -  20 25 mph 1017.4mb 80f 80f
5:50pm 6ft 7s 5s 18 22 mph 1017.4mb 80f 80f
5:40pm 6ft  -  5s 18 25 mph 1017.4mb 80f 80f
5:30pm  -   -   -  20 25 mph 1017.5mb 80f 80f
5:20pm  -   -   -  20 25 mph 1017.6mb 80f 80f
5:10pm  -   -   -  20 22 mph 1017.8mb 80f 80f
5:00pm  -   -   -  20 22 mph 1017.8mb 80f 80f
4:50pm 6ft 7s 5s 18 22 mph 1017.9mb 80f 80f
4:40pm 6ft  -  5s 18 22 mph 1017.9mb 80f 80f
4:30pm  -   -   -  20 22 mph 1017.9mb 80f 80f
4:20pm  -   -   -  20 25 mph 1018mb 80f 80f
4:10pm  -   -   -  20 22 mph 1018.1mb 80f 80f
4:00pm  -   -   -  20 25 mph 1018.1mb 80f 80f
3:50pm 6ft 7s 5s 20 25 mph 1018.4mb 80f 80f
3:40pm  -   -   -  20 25 mph 1018.4mb 80f 80f
3:30pm  -   -   -  18 22 mph 1018.5mb 80f 80f
3:20pm  -   -   -  18 25 mph 1018.5mb 80f 80f
3:10pm  -   -   -  20 22 mph 1018.6mb 80f 80f
3:00pm  -   -   -  18 22 mph 1018.8mb 80f 80f
2:50pm 5.5ft 7s 5s 18 22 mph 1018.8mb 80f 80f
2:40pm 5.5ft  -  5s 18 22 mph 1018.9mb 80f 80f
2:30pm  -   -   -  20 22 mph 1019mb 80f 80f
2:20pm  -   -   -  18 22 mph 1019mb 80f 80f
2:10pm  -   -   -  20 22 mph 1019mb 80f 80f
2:00pm  -   -   -  20 22 mph 1019mb 80f 80f
1:50pm 6ft 7s 5s 18 22 mph 1019.1mb 80f 80f
1:40pm 6ft  -  5s 18 22 mph 1019.1mb 80f 80f
1:30pm  -   -   -  18 25 mph 1019.4mb 80f 80f
1:20pm  -   -   -  18 20 mph 1019.4mb 80f 80f
1:10pm  -   -   -  18 22 mph 1019.5mb 80f 80f
1:00pm  -   -   -  18 20 mph 1019.5mb 80f 80f
12:50pm 6ft 8s 6s 18 22 mph 1019.4mb 80f 80f
12:40pm 6ft  -  6s 18 22 mph 1019.1mb 80f 80f
12:30pm  -   -   -  18 22 mph 1019.1mb 80f 80f
12:20pm  -   -   -  18 22 mph 1019mb 80f 80f
12:10pm  -   -   -  18 22 mph 1019mb 80f 79f
12:00pm  -   -   -  18 22 mph 1019mb 80f 79f
11:50am 6ft 8s 5s 18 25 mph 1018.9mb 80f 80f
11:40am 6ft  -  5s 20 22 mph 1018.8mb 80f 79f
11:30am  -   -   -  20 22 mph 1018.8mb 80f 79f
11:20am  -   -   -  18 22 mph 1018.6mb 80f 79f
11:10am  -   -   -  20 22 mph 1018.8mb 80f 79f
11:00am  -   -   -  20 25 mph 1018.8mb 80f 79f
10:50am 6ft 7s 5s 18 22 mph 1018.8mb 80f 79f
10:40am 6ft  -  5s 20 25 mph 1018.8mb 80f 79f
10:30am  -   -   -  20 22 mph 1018.8mb 80f 79f
10:20am  -   -   -  20 25 mph 1018.8mb 80f 79f
10:10am  -   -   -  20 22 mph 1018.8mb 80f 79f
10:00am  -   -   -  18 25 mph 1018.8mb 80f 79f
9:50am 6ft 7s 5s 20 25 mph 1018.6mb 80f 79f
9:40am  -   -   -  20 25 mph 1018.5mb 80f 79f
9:30am  -   -   -  20 25 mph 1018.5mb 80f 79f
9:20am  -   -   -  20 25 mph 1018.4mb 80f 79f
9:10am  -   -   -  20 25 mph 1018.4mb 80f 79f
9:00am  -   -   -  18 22 mph 1018.4mb 80f 79f
8:50am 5.5ft 7s 5s 18 22 mph 1018.4mb 80f 79f
8:40am 5.5ft  -  5s 20 22 mph 1018.4mb 80f 79f
8:30am  -   -   -  18 22 mph 1018.1mb 80f 79f
8:20am  -   -   -  20 25 mph 1018.1mb 80f 79f
8:10am  -   -   -  18 22 mph 1018.1mb 80f 79f
8:00am  -   -   -  18 20 mph 1018.1mb 80f 79f
7:50am 5.5ft 7s 5s 20 22 mph 1018.1mb 80f 79f
7:40am 5.5ft  -  5s 18 22 mph 1018.1mb 80f 79f
7:30am  -   -   -  18 25 mph 1018.1mb 80f 79f
7:20am  -   -   -  18 22 mph 1018.3mb 80f 79f
7:10am  -   -   -  18 22 mph 1018mb 80f 79f
7:00am  -   -   -  20 22 mph 1018.1mb 80f 79f
6:50am 5.5ft 7s 5s 18 22 mph 1018mb 80f 79f
6:40am  -   -   -  18 22 mph 1018mb 80f 79f
6:30am  -   -   -  18 22 mph 1018mb 80f 79f
6:20am  -   -   -  18 22 mph 1018.1mb 80f 79f
6:10am  -   -   -  18 25 mph 1018.3mb 80f 79f
6:00am  -   -   -  18 22 mph 1018.1mb 80f 79f
5:50am 6ft 8s 5s 18 20 mph 1018mb 80f 79f
5:40am 6ft  -  5s 18 20 mph 1018.1mb 80f 79f
5:30am  -   -   -  18 20 mph 1018.3mb 80f 79f
5:20am  -   -   -  18 20 mph 1018.3mb 80f 79f
5:10am  -   -   -  18 22 mph 1018.4mb 80f 79f
5:00am  -   -   -  20 25 mph 1018.4mb 80f 79f
4:50am 6ft 8s 5s 20 25 mph 1018.4mb 80f 79f
4:40am 6ft  -  5s 18 22 mph 1018.5mb 80f 79f
4:30am  -   -   -  18 22 mph 1018.5mb 80f 79f
4:20am  -   -   -  20 25 mph 1018.8mb 80f 79f
4:10am  -   -   -  20 27 mph 1018.8mb 80f 79f
4:00am  -   -   -  20 25 mph 1019mb 80f 79f
3:50am 5.5ft 8s 6s 18 22 mph 1019.3mb 80f 79f
3:40am  -   -   -  18 22 mph 1019.3mb 80f 79f
3:30am  -   -   -  18 20 mph 1019.4mb 80f 79f
3:20am  -   -   -  16 20 mph 1019.4mb 80f 79f
3:10am  -   -   -  18 20 mph 1019.4mb 80f 79f
3:00am  -   -   -  18 20 mph 1019.4mb 80f 79f
2:50am 6ft 7s 6s 18 20 mph 1019.5mb 80f 79f
2:40am 6ft  -  6s 18 20 mph 1019.5mb 80f 79f
2:30am  -   -   -  18 20 mph 1019.5mb 80f 79f
2:20am  -   -   -  16 20 mph 1019.5mb 80f 80f
2:10am  -   -   -  18 20 mph 1019.5mb 80f 80f
2:00am  -   -   -  18 22 mph 1019.4mb 80f 80f
1:50am 5.5ft 7s 5s 18 22 mph 1019.3mb 80f 80f
1:40am 5.5ft  -  5s 18 22 mph 1019.1mb 80f 80f
1:30am  -   -   -  18 22 mph 1019.1mb 80f 80f
1:20am  -   -   -  18 20 mph 1019.3mb 80f 80f
1:10am  -   -   -  18 20 mph 1019.3mb 80f 80f
1:00am  -   -   -  18 20 mph 1019.1mb 80f 80f
12:50am 5.5ft 6s 6s 18 20 mph 1019.1mb 80f 80f
12:40am 5.5ft  -  6s 18 20 mph 1019mb 80f 80f
12:30am  -   -   -  16 20 mph 1019mb 80f 80f
12:20am  -   -   -  16 20 mph 1019mb 80f 80f
12:10am  -   -   -  18 20 mph 1018.9mb 80f 80f
12:00am  -   -   -  16 20 mph 1018.9mb 80f 80f
Sun 05/28 11:50pm 5.5ft 7s 6s 18 22 mph 1018.8mb 80f 80f
11:40pm 5.5ft  -  6s 18 20 mph 1018.8mb 80f 80f
11:30pm  -   -   -  18 20 mph 1018.6mb 80f 80f
11:20pm  -   -   -  18 20 mph 1018.5mb 80f 80f
11:10pm  -   -   -  16 20 mph 1018.4mb 80f 80f
11:00pm  -   -   -  16 20 mph 1018.3mb 80f 80f
10:50pm 5.5ft 7s 5s 18 20 mph 1018.1mb 80f 80f
10:40pm  -   -   -  16 20 mph 1018mb 80f 80f
10:30pm  -   -   -  16 20 mph 1018mb 80f 80f
10:20pm  -   -   -  18 20 mph 1017.6mb 80f 80f
10:10pm  -   -   -  16 20 mph 1017.6mb 80f 80f
10:00pm  -   -   -  16 20 mph 1017.5mb 80f 80f
9:50pm 5.5ft 7s 6s 16 20 mph 1017.4mb 80f 80f
9:40pm  -   -   -  18 22 mph 1017.3mb 80f 80f
9:30pm  -   -   -  16 20 mph 1017.1mb 80f 80f
9:20pm  -   -   -  16 20 mph 1017.1mb 80f 80f
9:10pm  -   -   -  18 20 mph 1017mb 80f 80f
9:00pm  -   -   -  18 22 mph 1017mb 80f 80f
8:50pm 6ft 8s 6s 18 20 mph 1017mb 80f 80f
8:40pm 6ft  -  6s 16 20 mph 1017mb 80f 80f
8:30pm  -   -   -  18 20 mph 1016.9mb 80f 80f
8:20pm  -   -   -  18 20 mph 1016.8mb 80f 80f
8:10pm  -   -   -  16 20 mph 1016.6mb 80f 80f
8:00pm  -   -   -  18 20 mph 1016.5mb 80f 80f
7:50pm 5.5ft 7s 6s 18 22 mph 1016.4mb 80f 80f
7:40pm 5.5ft  -  6s 18 22 mph 1016.4mb 80f 80f
7:30pm  -   -   -  18 22 mph 1016.4mb 80f 80f
7:20pm  -   -   -  18 20 mph 1016.4mb 80f 80f
7:10pm  -   -   -  18 20 mph 1016.3mb 80f 80f
7:00pm  -   -   -  18 22 mph 1016.3mb - 80f
6:50pm 5ft 7s 5s 18 20 mph 1016.1mb 80f 80f
6:40pm  -   -   -  18 22 mph 1016.3mb 80f 80f
6:30pm  -   -   -  18 22 mph 1016.4mb 80f 80f
6:20pm  -   -   -  18 22 mph 1016.3mb 80f 80f
6:10pm  -   -   -  18 22 mph 1016.4mb 80f 80f
6:00pm  -   -   -  18 22 mph 1016.4mb 80f 80f
5:50pm 6ft 7s 6s 18 20 mph 1016.5mb 80f 80f
5:40pm  -   -   -  18 22 mph 1016.5mb 80f 80f
5:30pm  -   -   -  18 22 mph 1016.5mb 80f 80f
5:20pm  -   -   -  18 20 mph 1016.5mb 80f 80f
5:10pm  -   -   -  18 20 mph 1016.6mb 80f 80f
5:00pm  -   -   -  18 20 mph 1016.9mb 80f 80f
4:50pm 5.5ft 7s 5s 18 22 mph 1017mb 80f 80f
4:40pm 5.5ft  -  5s 18 22 mph 1017mb 80f 80f
4:30pm  -   -   -  18 20 mph 1017mb 80f 80f
4:20pm  -   -   -  18 22 mph 1017mb 80f 80f
4:10pm  -   -   -  18 20 mph 1017.1mb 80f 80f
4:00pm  -   -   -  18 20 mph 1017.4mb 80f 80f
3:50pm 6ft 6s 6s 18 20 mph 1017.5mb 80f 80f
3:40pm 6ft  -  6s 18 20 mph 1017.5mb 80f 80f
3:30pm  -   -   -  16 20 mph 1017.6mb 80f 80f
3:20pm  -   -   -  18 22 mph 1017.6mb 80f 80f
3:10pm  -   -   -  16 20 mph 1017.9mb 80f 80f
3:00pm  -   -   -  18 22 mph 1018mb 80f 80f
2:50pm 6ft 6s 6s 16 20 mph 1018mb 80f 80f
2:40pm 6ft  -  6s 16 20 mph 1018.1mb 80f 80f
2:30pm  -   -   -  18 20 mph 1018.3mb 80f 80f
2:20pm  -   -   -  16 20 mph 1018.4mb 80f 80f
2:10pm  -   -   -  18 22 mph 1018.4mb 80f 80f
2:00pm  -   -   -  16 20 mph 1018.4mb 80f 80f
1:50pm 6ft 7s 6s 16 20 mph 1018.3mb 80f 80f
1:40pm  -   -   -  18 20 mph 1018.4mb 80f 79f
1:30pm  -   -   -  16 20 mph 1018.4mb 80f 79f
1:20pm  -   -   -  16 20 mph 1018.5mb 80f 79f
1:10pm  -   -   -  16 20 mph 1018.4mb 80f 79f
1:00pm  -   -   -  18 22 mph 1018.4mb 80f 79f
12:50pm 6ft 6s 6s 16 22 mph 1018.3mb 80f 79f
12:40pm  -   -   -  18 20 mph 1018.4mb 80f 79f
12:30pm  -   -   -  16 20 mph 1018.4mb 80f 80f
12:20pm  -   -   -  16 20 mph 1018.5mb 80f 80f
12:10pm  -   -   -  16 20 mph 1018.5mb 80f 80f
12:00pm  -   -   -  16 20 mph 1018.1mb 80f 79f
11:50am 6ft 8s 6s 18 20 mph 1018.3mb 80f 79f
11:40am 6ft  -  6s 18 20 mph 1018.3mb 80f 79f
11:30am  -   -   -  18 22 mph 1018.1mb 80f 79f
11:20am  -   -   -  18 22 mph 1018.1mb 80f 79f
11:10am  -   -   -  18 22 mph 1018.1mb 80f 79f
11:00am  -   -   -  18 22 mph 1018mb 80f 79f
10:50am 6ft 7s 5s 18 22 mph 1018mb 80f 79f
10:40am 6ft  -  5s 18 22 mph 1018mb 80f 79f
10:30am  -   -   -  18 22 mph 1017.9mb 80f 79f
10:20am  -   -   -  18 20 mph 1017.8mb 80f 80f
10:10am  -   -   -  20 22 mph 1017.6mb 80f 80f
10:00am  -   -   -  18 25 mph 1017.6mb 80f 80f
9:50am 6ft 7s 5s 20 25 mph 1017.5mb 80f 79f
9:40am  -   -   -  18 22 mph 1017.4mb 80f 79f
9:30am  -   -   -  20 25 mph 1017.1mb 80f 79f
9:20am  -   -   -  20 25 mph 1017mb 80f 79f
9:10am  -   -   -  20 25 mph 1016.9mb 80f 79f
9:00am  -   -   -  20 25 mph 1016.9mb 80f 79f
8:50am 6ft 8s 5s 22 27 mph 1016.8mb 80f 79f
8:40am  -   -   -  22 27 mph 1016.6mb 80f 79f
8:30am  -   -   -  20 27 mph 1016.5mb 80f 79f
8:20am  -   -   -  20 27 mph 1016.5mb 80f 79f
8:10am  -   -   -  20 27 mph 1016.5mb 80f 79f
8:00am  -   -   -  20 25 mph 1016.5mb 80f 79f
7:50am 6ft 7s 6s 20 25 mph 1016.5mb 80f 79f
7:40am 6ft  -  6s 20 27 mph 1016.5mb 80f 79f
7:30am  -   -   -  20 27 mph 1016.5mb 80f 79f
7:20am  -   -   -  20 25 mph 1016.5mb 80f 79f
7:10am  -   -   -  20 25 mph 1016.5mb 80f 79f
7:00am  -   -   -  20 22 mph 1016.8mb 80f 79f
6:50am 6ft 7s 6s 20 25 mph 1016.9mb 80f 79f
6:40am  -   -   -  18 22 mph 1016.9mb 80f 79f
6:30am  -   -   -  18 22 mph 1017mb 80f 80f
6:20am  -   -   -  16 20 mph 1017mb 80f 80f
6:10am  -   -   -  18 20 mph 1017mb 80f 79f
6:00am  -   -   -  18 20 mph 1017.1mb 80f 80f
5:50am 5.5ft 11s 6s 18 20 mph 1017mb 80f 80f
5:40am 5.5ft  -  6s 18 20 mph 1017.1mb 80f 80f
5:30am  -   -   -  16 20 mph 1017.3mb 80f 80f
5:20am  -   -   -  16 20 mph 1017.4mb 80f 80f
5:10am  -   -   -  16 18 mph 1017.5mb 80f 80f
5:00am  -   -   -  16 18 mph 1017.5mb 80f 80f
4:50am 5.5ft 11s 6s 16 20 mph 1017.5mb 80f 80f
4:40am  -   -   -  18 20 mph 1017.5mb 80f 80f
4:30am  -   -   -  16 20 mph 1017.6mb 80f 80f
4:20am  -   -   -  16 20 mph 1017.8mb 80f 80f
4:10am  -   -   -  18 20 mph 1017.9mb 80f 80f
4:00am  -   -   -  18 22 mph 1018mb 80f 80f
3:50am 5.5ft 7s 6s 18 22 mph 1018mb 80f 80f
3:40am  -   -   -  20 25 mph 1018mb 80f 80f
3:30am  -   -   -  18 22 mph 1018mb 80f 80f
3:20am  -   -   -  18 20 mph 1018.1mb 80f 80f
3:10am  -   -   -  18 22 mph 1018.1mb 80f 80f
3:00am  -   -   -  18 22 mph 1018.4mb 80f 80f
2:50am 6ft 7s 6s 18 22 mph 1018.5mb 80f 80f
2:40am 6ft  -  6s 18 22 mph 1018.5mb 80f 80f
2:30am  -   -   -  18 22 mph 1018.8mb 80f 80f
2:20am  -   -   -  16 18 mph 1019mb 80f 80f
2:10am  -   -   -  16 18 mph 1018.9mb 80f 80f
2:00am  -   -   -  16 20 mph 1019mb 80f 80f
1:50am 6ft 12s 6s 16 22 mph 1019mb 80f 80f
1:40am  -   -   -  18 22 mph 1018.8mb 80f 80f
1:30am  -   -   -  18 20 mph 1018.8mb 80f 80f
1:20am  -   -   -  16 20 mph 1018.6mb 80f 80f
1:10am  -   -   -  16 20 mph 1018.6mb 80f 80f
1:00am  -   -   -  18 20 mph 1018.5mb 80f 80f
12:50am 6ft 7s 6s 18 22 mph 1018.5mb 80f 80f
12:40am  -   -   -  18 20 mph 1018.5mb 80f 80f
12:30am  -   -   -  18 22 mph 1018.4mb 80f 80f
12:20am  -   -   -  18 22 mph 1018.1mb 80f 80f
12:10am  -   -   -  18 22 mph 1018mb 80f 80f
12:00am  -   -   -  18 22 mph 1017.9mb 80f 80f
Sat 05/27 11:50pm 5.5ft 7s 6s 18 22 mph 1017.9mb 80f 80f
11:40pm  -   -   -  18 22 mph 1017.9mb 80f 80f
11:30pm  -   -   -  18 22 mph 1017.9mb 80f 79f
11:20pm  -   -   -  18 25 mph 1017.6mb 80f 80f
11:10pm  -   -   -  18 22 mph 1017.5mb 80f 80f
11:00pm  -   -   -  13 18 mph 1017.5mb 80f 79f
10:50pm 5.5ft 7s 6s 13 18 mph 1017.3mb 80f 79f
10:40pm  -   -   -  13 18 mph 1017.1mb 80f 79f
10:30pm  -   -   -  11 16 mph 1017.1mb 80f 79f
10:20pm  -   -   -  13 18 mph 1017.1mb 80f 79f
10:10pm  -   -   -  16 18 mph 1017mb 80f 80f
10:00pm  -   -   -  16 18 mph 1016.9mb 80f 80f
9:50pm 6ft 7s 6s 16 20 mph 1016.6mb 80f 80f
9:40pm  -   -   -  16 20 mph 1016.5mb 80f 80f
9:30pm  -   -   -  18 22 mph 1016.5mb 80f 80f
9:20pm  -   -   -  18 20 mph 1016.4mb 80f 79f
9:10pm  -   -   -  18 25 mph 1016.3mb 80f 80f
9:00pm  -   -   -  16 20 mph 1016.3mb 80f 80f
8:50pm 5.5ft 6s 6s 13 18 mph 1016.1mb 80f 80f
8:40pm  -   -   -  13 18 mph 1016mb 80f 80f
8:30pm  -   -   -  16 18 mph 1016mb 80f 80f
8:20pm  -   -   -  16 20 mph 1016mb 80f 80f
8:10pm  -   -   -  13 18 mph 1015.9mb 80f 80f
8:00pm  -   -   -  13 18 mph 1015.9mb 80f 80f
7:50pm 6ft 8s 6s 16 20 mph 1015.8mb 80f 80f
7:40pm 6ft  -  6s 18 20 mph 1015.8mb 80f 80f
7:30pm  -   -   -  16 20 mph 1015.5mb 80f 80f
7:20pm  -   -   -  16 20 mph 1015.6mb 80f 80f
7:10pm  -   -   -  18 20 mph 1015.6mb 80f 80f
7:00pm  -   -   -  16 20 mph 1015.8mb 80f 80f
6:50pm 6ft 6s 6s 16 20 mph 1015.8mb 80f 80f
6:40pm  -   -   -  18 20 mph 1015.6mb 80f 80f
6:30pm  -   -   -  18 20 mph 1015.8mb 80f 80f
6:20pm  -   -   -  18 20 mph 1015.9mb 80f 80f
6:10pm  -   -   -  18 22 mph 1016mb 80f 80f
6:00pm  -   -   -  16 20 mph 1016mb 80f 80f
5:50pm 6ft 7s 6s 18 20 mph 1016mb 80f 80f
5:40pm 6ft  -  6s 18 20 mph 1016.1mb 80f 80f
5:30pm  -   -   -  18 20 mph 1016.1mb 80f 80f
5:20pm  -   -   -  16 20 mph 1016.4mb 80f 81f
5:10pm  -   -   -  16 20 mph 1016.5mb 80f 81f
5:00pm  -   -   -  18 22 mph 1016.5mb 80f 81f
4:50pm 6ft 7s 6s 18 20 mph 1016.5mb 80f 81f
4:40pm  -   -   -  16 20 mph 1016.5mb 80f 81f
4:30pm  -   -   -  18 20 mph 1016.5mb 80f 81f
4:20pm  -   -   -  18 22 mph 1016.5mb 80f 80f
4:10pm  -   -   -  18 22 mph 1016.5mb 80f 80f
4:00pm  -   -   -  18 22 mph 1016.9mb 80f 80f
3:50pm 6ft 7s 6s 16 20 mph 1017mb 80f 80f
3:40pm 6ft  -  6s 16 20 mph 1017.1mb 80f 80f
3:30pm  -   -   -  16 18 mph 1017.5mb 80f 80f
3:20pm  -   -   -  16 20 mph 1017.5mb 80f 80f
3:10pm  -   -   -  18 22 mph 1017.6mb 80f 80f
3:00pm  -   -   -  18 25 mph 1017.6mb 80f 80f
2:50pm 6ft 7s 6s 18 20 mph 1017.6mb 80f 80f
2:40pm  -   -   -  18 20 mph 1017.6mb 80f 80f
2:30pm  -   -   -  18 20 mph 1017.6mb 80f 80f
2:20pm  -   -   -  18 22 mph 1017.8mb 80f 80f
2:10pm  -   -   -  16 22 mph 1017.8mb 80f 80f
2:00pm  -   -   -  18 20 mph 1017.8mb 80f 80f
1:50pm 6ft 7s 6s 18 22 mph 1017.6mb 80f 80f
1:40pm  -   -   -  16 20 mph 1017.6mb 80f 80f
1:30pm  -   -   -  18 20 mph 1017.8mb 80f 80f
1:20pm  -   -   -  18 20 mph 1017.6mb - 80f
1:10pm  -   -   -  16 20 mph 1017.6mb 80f 80f
1:00pm  -   -   -  16 22 mph 1017.6mb - 80f
12:50pm 6ft 11s 6s 16 20 mph 1017.8mb 80f 80f
12:40pm 6ft  -  6s 16 20 mph 1017.9mb 80f 80f
12:30pm  -   -   -  16 20 mph 1017.9mb 80f 80f
12:20pm  -   -   -  16 18 mph 1017.8mb 80f 80f
12:10pm  -   -   -  16 20 mph 1017.6mb 80f 80f
12:00pm  -   -   -  16 18 mph 1017.6mb 80f 80f
11:50am 6.5ft 7s 6s 16 20 mph 1017.8mb 80f 80f
11:40am 6.5ft  -  6s 16 18 mph 1017.6mb 80f 80f
11:30am  -   -   -  16 20 mph 1017.5mb 80f 80f
11:20am  -   -   -  18 22 mph 1017.4mb 80f 80f
11:10am  -   -   -  18 22 mph 1017.4mb 80f 80f
11:00am  -   -   -  18 20 mph 1017.1mb 80f 80f
10:50am 6ft 7s 6s 18 22 mph 1017.1mb 80f 80f
10:40am 6ft  -  6s 16 20 mph 1017mb 80f 80f
10:30am  -   -   -  18 22 mph 1016.9mb 80f 80f
10:20am  -   -   -  18 22 mph 1016.9mb 80f 80f
10:10am  -   -   -  18 22 mph 1017mb - 80f
10:00am  -   -   -  18 22 mph 1016.8mb 80f 80f
9:50am 6.5ft 7s 6s 18 22 mph 1016.6mb 80f 79f
9:40am  -   -   -  18 22 mph 1016.6mb 80f 79f
9:30am  -   -   -  18 22 mph 1016.6mb 80f 79f
9:20am  -   -   -  16 22 mph 1016.6mb 80f 80f
9:10am  -   -   -  16 20 mph 1016.5mb 80f 80f
9:00am  -   -   -  18 22 mph 1016.5mb 80f 80f
8:50am 6ft 7s 6s 18 22 mph 1016.4mb 80f 80f
8:40am 6ft  -  6s 16 20 mph 1016.4mb 80f 80f
8:30am  -   -   -  18 20 mph 1016.3mb 80f 79f
8:20am  -   -   -  18 22 mph 1016mb 80f 79f
8:10am  -   -   -  18 22 mph 1016mb 80f 79f
8:00am  -   -   -  18 20 mph 1016mb 80f 79f
7:50am 6.5ft 11s 6s 16 20 mph 1016mb 80f 79f
7:40am 6.5ft  -  6s 18 22 mph 1015.9mb 80f 79f
7:30am  -   -   -  18 22 mph 1016mb 80f 79f
7:20am  -   -   -  18 20 mph 1016mb 80f 80f
7:10am  -   -   -  18 22 mph 1016mb 80f 79f
7:00am  -   -   -  18 22 mph 1016mb 80f 79f
6:50am 6ft 7s 6s 18 20 mph 1016mb 80f 79f
6:40am 6ft  -  6s 18 22 mph 1016mb 80f 79f
6:30am  -   -   -  16 20 mph 1016mb 80f 79f
6:20am  -   -   -  18 20 mph 1016mb 80f 79f
6:10am  -   -   -  16 20 mph 1016mb 80f 79f
6:00am  -   -   -  16 20 mph 1016mb 80f 79f
5:50am 6ft 7s 6s 18 22 mph 1016.1mb 80f 79f
5:40am 6ft  -  6s 16 20 mph 1016mb 80f 79f
5:30am  -   -   -  16 20 mph 1016mb 80f 79f
5:20am  -   -   -  16 20 mph 1016.3mb 80f 79f
5:10am  -   -   -  18 22 mph 1016.3mb 80f 79f
5:00am  -   -   -  18 22 mph 1016.3mb 80f 79f
4:50am 6ft 11s 6s 18 25 mph 1016.5mb 80f 79f
4:40am  -   -   -  18 22 mph 1016.5mb 80f 79f
4:30am  -   -   -  18 22 mph 1016.5mb 80f 79f
4:20am  -   -   -  20 25 mph 1016.6mb 80f 79f
4:10am  -   -   -  20 25 mph 1016.8mb 80f 79f
4:00am  -   -   -  20 25 mph 1016.9mb 80f 79f
3:50am 6.5ft 7s 6s 18 22 mph 1016.9mb 80f 79f
3:40am 6.5ft  -  6s 18 22 mph 1017mb 80f 79f
3:30am  -   -   -  18 22 mph 1017.1mb 80f 79f
3:20am  -   -   -  20 25 mph 1017.3mb 80f 79f
3:10am  -   -   -  20 25 mph 1017.4mb 80f 79f
3:00am  -   -   -  20 22 mph 1017.5mb 80f 79f
2:50am 6ft 7s 6s 20 25 mph 1017.6mb 80f 79f
2:40am 6ft  -  6s 18 25 mph 1017.9mb 80f 79f
2:30am  -   -   -  20 27 mph 1017.9mb 80f 80f
2:20am  -   -   -  18 22 mph 1018mb 80f 80f
2:10am  -   -   -  18 22 mph 1018.1mb 80f 80f
2:00am  -   -   -  18 22 mph 1018.3mb 80f 80f
1:50am 6ft 11s 6s 18 20 mph 1018.3mb 80f 80f
1:40am  -   -   -  16 20 mph 1018.5mb 80f 80f
1:30am  -   -   -  16 20 mph 1018.5mb 80f 80f
1:20am  -   -   -  16 20 mph 1018.4mb 80f 80f
1:10am  -   -   -  13 18 mph 1018.5mb 80f 80f
1:00am  -   -   -  16 20 mph 1018.4mb 80f 80f
12:50am 6ft 7s 6s 18 22 mph 1018.3mb 80f 80f
12:40am  -   -   -  18 22 mph 1018.1mb 80f 80f
12:30am  -   -   -  18 22 mph 1018mb 80f 80f
12:20am  -   -   -  18 22 mph 1018mb 80f 80f
12:10am  -   -   -  20 22 mph 1018mb 80f 80f
12:00am  -   -   -  18 22 mph 1017.9mb 80f 80f
Fri 05/26 11:50pm 6ft 11s 6s 18 22 mph 1017.6mb 80f 80f
11:40pm 6ft  -  6s 18 22 mph 1017.5mb 80f 80f
11:30pm  -   -   -  16 20 mph 1017.5mb 80f 80f
11:20pm  -   -   -  16 20 mph 1017.4mb 80f 80f
11:10pm  -   -   -  18 22 mph 1017.1mb 80f 80f
11:00pm  -   -   -  18 22 mph 1017.1mb 80f 80f
10:50pm 6ft 11s 6s 18 22 mph 1017mb 80f 80f
10:40pm  -   -   -  18 22 mph 1017mb 80f 80f
10:30pm  -   -   -  18 22 mph 1017mb 80f 80f
10:20pm  -   -   -  18 22 mph 1016.9mb 80f 80f
10:10pm  -   -   -  18 20 mph 1016.6mb 80f 80f
10:00pm  -   -   -  16 20 mph 1016.5mb 80f 80f
9:50pm 6ft 11s 6s 18 22 mph 1016.5mb 80f 80f
9:40pm 6ft  -  6s 18 20 mph 1016.5mb 80f 80f
9:30pm  -   -   -  18 22 mph 1016.4mb 80f 80f
9:20pm  -   -   -  18 22 mph 1016.3mb 80f 80f
9:10pm  -   -   -  18 20 mph 1016.3mb 80f 80f
9:00pm  -   -   -  18 22 mph 1016.1mb 80f 79f
8:50pm 6ft 8s 6s 18 25 mph 1016mb 80f 79f
8:40pm 6ft  -  6s 18 25 mph 1016mb 80f 80f
8:30pm  -   -   -  16 22 mph 1015.9mb 80f 80f
8:20pm  -   -   -  16 20 mph 1016mb 80f 80f
8:10pm  -   -   -  18 20 mph 1015.9mb 80f 80f
8:00pm  -   -   -  16 20 mph 1015.8mb 80f 80f
7:50pm 6.5ft 11s 6s 16 20 mph 1015.6mb 80f 80f
7:40pm  -   -   -  18 20 mph 1015.5mb 80f 80f
7:30pm  -   -   -  16 20 mph 1015.5mb 80f 80f
7:20pm  -   -   -  16 20 mph 1015.5mb 80f 80f
7:10pm  -   -   -  16 20 mph 1015.5mb 80f 80f
7:00pm  -   -   -  16 18 mph 1015.5mb 80f 80f
6:50pm 6ft 11s 6s 13 18 mph 1015.6mb 80f 80f
6:40pm 6ft  -  6s 16 18 mph 1015.8mb 80f 79f
6:30pm  -   -   -  16 22 mph 1015.8mb 80f 79f
6:20pm  -   -   -  16 22 mph 1015.8mb 80f 80f
6:10pm  -   -   -  16 20 mph 1016mb 80f 80f
6:00pm  -   -   -  16 20 mph 1016mb 80f 80f
5:30pm  -   -   -  16 20 mph 1016mb 80f 80f
5:20pm  -   -   -  16 18 mph 1016.1mb 80f 80f
5:10pm  -   -   -  16 18 mph 1016.3mb 80f 80f
5:00pm  -   -   -  16 18 mph 1016.4mb 80f 80f
4:50pm 6ft 11s 6s 16 18 mph 1016.4mb 80f 80f
4:40pm 6ft  -  6s 16 18 mph 1016.5mb 80f 80f
4:30pm  -   -   -  13 18 mph 1016.5mb 80f 80f
4:20pm  -   -   -  16 20 mph 1016.6mb 80f 80f
4:10pm  -   -   -  16 20 mph 1016.6mb 80f 80f
4:00pm  -   -   -  16 20 mph 1016.9mb 80f 80f
3:50pm 6ft 11s 6s 16 18 mph 1016.9mb 80f 80f
3:40pm 6ft  -  6s 16 20 mph 1017mb 80f 80f
3:30pm  -   -   -  16 20 mph 1017.1mb 80f 80f
3:20pm  -   -   -  18 20 mph 1017.3mb 80f 80f
3:10pm  -   -   -  16 22 mph 1017.4mb 80f 80f
3:00pm  -   -   -  18 20 mph 1017.4mb 80f 80f
2:50pm 6ft 11s 6s 16 20 mph 1017.5mb 80f 80f
2:40pm  -   -   -  16 20 mph 1017.5mb 80f 80f
2:30pm  -   -   -  16 18 mph 1017.6mb - 80f
2:20pm  -   -   -  16 20 mph 1017.6mb 80f 80f
2:10pm  -   -   -  16 20 mph 1017.8mb 80f 80f
2:00pm  -   -   -  16 20 mph 1017.6mb 80f 80f
1:50pm 6ft 11s 6s 16 20 mph 1017.6mb 80f 80f
1:40pm  -   -   -  18 20 mph 1017.6mb 80f 80f
1:30pm  -   -   -  18 22 mph 1017.6mb 80f 80f
1:20pm  -   -   -  18 20 mph 1017.6mb 80f 80f
1:10pm  -   -   -  16 20 mph 1017.6mb 80f 80f
1:00pm  -   -   -  16 18 mph 1017.6mb 80f 80f
12:50pm 6ft 11s 6s 16 18 mph 1017.6mb 80f 80f
12:40pm 6ft  -  6s 16 18 mph 1017.6mb 80f 80f
12:30pm  -   -   -  16 18 mph 1017.6mb 80f 80f
12:20pm  -   -   -  16 18 mph 1017.5mb 80f 80f
12:10pm  -   -   -  16 18 mph 1017.5mb 80f 80f
12:00pm  -   -   -  16 20 mph 1017.4mb 80f 80f
11:50am 6ft 12s 6s 16 18 mph 1017.4mb 80f 80f
11:40am 6ft  -  6s 16 20 mph 1017.3mb 80f 80f
11:30am  -   -   -  16 20 mph 1017.1mb 80f 79f
11:20am  -   -   -  16 20 mph 1017mb 80f 79f
11:10am  -   -   -  13 18 mph 1016.9mb 80f 79f
11:00am  -   -   -  13 18 mph 1016.9mb 80f 80f
10:50am 6ft 12s 6s 16 18 mph 1016.9mb 80f 80f
10:40am  -   -   -  18 20 mph 1016.8mb 80f 80f
10:30am  -   -   -  16 20 mph 1016.8mb 80f 80f
10:20am  -   -   -  16 20 mph 1016.5mb 80f 80f
10:10am  -   -   -  18 20 mph 1016.5mb 80f 80f
10:00am  -   -   -  18 22 mph 1016.4mb 80f 80f
9:50am 6ft 11s 6s 16 20 mph 1016.4mb 80f 80f
9:40am  -   -   -  18 20 mph 1016.3mb 80f 80f
9:30am  -   -   -  18 20 mph 1016.1mb 80f 80f
9:20am  -   -   -  18 20 mph 1016mb 80f 80f
9:10am  -   -   -  18 22 mph 1016mb 80f 80f
9:00am  -   -   -  18 22 mph 1015.9mb 80f 80f
8:50am 6.5ft 12s 6s 16 20 mph 1015.8mb 80f 80f
8:40am  -   -   -  18 20 mph 1015.8mb 80f 80f
8:30am  -   -   -  16 20 mph 1015.8mb 80f 80f
8:20am  -   -   -  16 18 mph 1015.8mb 80f 80f
8:10am  -   -   -  13 18 mph 1015.8mb 80f 80f
8:00am  -   -   -  16 18 mph 1015.8mb 80f 80f
7:50am 6ft 12s 6s 13 18 mph 1015.8mb 80f 80f
7:40am 6ft  -  6s 16 18 mph 1015.8mb 80f 80f
7:30am  -   -   -  13 18 mph 1015.6mb 80f 80f
7:20am  -   -   -  13 18 mph 1015.6mb 80f 79f
7:10am  -   -   -  13 16 mph 1015.5mb 80f 79f
7:00am  -   -   -  13 18 mph 1015.5mb 80f 79f
6:50am 6ft 11s 6s 16 18 mph 1015.6mb 80f 79f
6:40am  -   -   -  16 18 mph 1015.6mb 80f 80f
6:30am  -   -   -  16 18 mph 1015.6mb 80f 80f
6:20am  -   -   -  13 18 mph 1015.6mb 80f 79f
6:10am  -   -   -  13 18 mph 1015.6mb 80f 79f
6:00am  -   -   -  16 18 mph 1015.8mb 80f 79f
5:50am 6ft 12s 6s 16 20 mph 1015.8mb 80f 80f
5:40am  -   -   -  16 18 mph 1015.8mb 80f 80f
5:30am  -   -   -  16 18 mph 1015.9mb 80f 80f
5:20am  -   -   -  16 20 mph 1016mb 80f 80f
5:10am  -   -   -  18 22 mph 1016mb 80f 80f
5:00am  -   -   -  16 20 mph 1016.3mb 80f 80f
4:50am 6ft 12s 6s 16 20 mph 1016.4mb 80f 80f
4:40am 6ft  -  6s 16 20 mph 1016.5mb 80f 80f
4:30am  -   -   -  18 22 mph 1016.5mb 80f 80f
4:20am  -   -   -  20 25 mph 1016.5mb 80f 80f
4:10am  -   -   -  18 22 mph 1016.5mb 80f 79f
4:00am  -   -   -  16 22 mph 1016.6mb 80f 79f
3:50am 6ft 12s 6s 11 16 mph 1016.8mb 80f 78f
3:40am 6ft  -  6s 13 20 mph 1016.9mb 80f 79f
3:30am  -   -   -  13 16 mph 1017mb 80f 79f
3:20am  -   -   -  13 16 mph 1017mb 80f 78f
3:10am  -   -   -  16 18 mph 1017.3mb 80f 78f
3:00am  -   -   -  13 18 mph 1017.4mb 80f 78f
2:50am 6.5ft 12s 6s 16 18 mph 1017.5mb 80f 79f
2:40am 6.5ft  -  6s 13 16 mph 1017.5mb 80f 78f
2:30am  -   -   -  13 20 mph 1017.5mb 80f 76f
2:20am  -   -   -  18 22 mph 1017.9mb 80f 76f
2:10am  -   -   -  20 25 mph 1018mb 80f 76f
2:00am  -   -   -  20 27 mph 1018mb 80f 77f
1:50am 6.5ft 12s 6s 20 29 mph 1018mb 80f 77f
1:40am  -   -   -  16 20 mph 1017.8mb 80f 77f
1:30am  -   -   -  16 22 mph 1017.9mb 80f 77f
1:20am  -   -   -  18 22 mph 1017.9mb 80f 78f
1:10am  -   -   -  18 22 mph 1017.9mb 80f 79f
1:00am  -   -   -  16 20 mph 1017.6mb 80f 79f
12:50am 6ft 13s 6s 16 20 mph 1017.6mb 80f 79f
12:40am  -   -   -  16 18 mph 1017.6mb 80f 79f
12:30am  -   -   -  16 20 mph 1017.4mb 80f 79f
12:20am  -   -   -  16 20 mph 1017.3mb 80f 79f
12:10am  -   -   -  18 20 mph 1017.3mb 80f 79f
12:00am  -   -   -  18 20 mph 1017.4mb 80f 79f
Thu 05/25 11:50pm 7ft 12s 6s 18 20 mph 1017.5mb 80f 79f
11:40pm  -   -   -  18 22 mph 1017.5mb 80f 79f
11:30pm  -   -   -  18 22 mph 1017.1mb 80f 79f
11:20pm  -   -   -  18 22 mph 1017mb 80f 79f
11:10pm  -   -   -  18 22 mph 1017mb 80f 79f
11:00pm  -   -   -  18 22 mph 1016.9mb 80f 79f
10:50pm 7ft 12s 6s 18 22 mph 1016.8mb 80f 79f
10:40pm 7ft  -  6s 18 25 mph 1016.6mb 80f 79f
10:30pm  -   -   -  18 22 mph 1016.5mb 80f 79f
10:20pm  -   -   -  18 22 mph 1016.5mb 80f 79f
10:10pm  -   -   -  18 20 mph 1016.3mb 80f 79f
10:00pm  -   -   -  18 22 mph 1016.1mb 80f 79f
9:50pm 6ft 11s 6s 20 25 mph 1016mb 80f 79f
9:40pm  -   -   -  18 22 mph 1016mb 80f 80f
9:30pm  -   -   -  18 20 mph 1015.9mb 80f 80f
9:20pm  -   -   -  18 22 mph 1015.9mb 80f 80f
9:10pm  -   -   -  18 22 mph 1015.9mb 80f 80f
9:00pm  -   -   -  18 22 mph 1015.9mb 80f 79f
8:50pm 7ft 12s 7s 18 22 mph 1015.8mb 80f 79f
8:40pm  -   -   -  18 20 mph 1015.6mb 80f 79f
8:30pm  -   -   -  18 22 mph 1015.6mb 80f 79f
8:20pm  -   -   -  18 20 mph 1015.6mb 80f 79f
8:10pm  -   -   -  18 22 mph 1015.5mb 80f 79f
8:00pm  -   -   -  18 22 mph 1015.5mb 80f 79f
7:50pm 6.5ft 12s 6s 16 20 mph 1015.5mb 80f 79f
7:40pm 6.5ft  -  6s 18 22 mph 1015.5mb 80f 79f
7:30pm  -   -   -  18 20 mph 1015.6mb 80f 79f